Location: Marion Hill
(40.7303°N, 80.2959°W)
Time: 09:28:21
(UTC+00:00)

Cosmos 292 Rocket - Pass Details

Date: 29 October 2020
Orbit: 672 x 695 km, 74.0° (Epoch: 26 November)

Event Time Altitude Azimuth Distance (km) Brightness Sun altitude
Rises 22:44:29 0° 204° (SSW) 3,022 7.7 -5.2°
Reaches altitude 10° 22:46:46 10° 207° (SSW) 2,115 6.9 -5.6°
Maximum altitude 22:51:31 69° 290° (WNW) 735 4.2 -6.5°
Drops below altitude 10° 22:56:20 10° 14° (NNE) 2,145 6.1 -7.4°
Sets 22:58:40 0° 17° (NNE) 3,069 6.8 -7.8°
